Mt. Clemens, MI

2:17 AM EST on January 18, 2018 (GMT -0500)
Selfridge Angb

Weather History for KMTC - April, 2013

Change the Weather History Date:

Tuesday, April 2, 2013

  Actual Average Record
Temperature  
Mean Temperature 31 °F -  
Max Temperature 41 °F 50 °F 82 °F (1963)
Min Temperature 23 °F 33 °F 20 °F (1965)
Degree Days  
Heating Degree Days 34    
Moisture  
Dew Point 12 °F    
Average Humidity 47    
Maximum Humidity 73    
Minimum Humidity 30    
Precipitation  
Precipitation 0.00 in - - ()
Sea Level Pressure  
Sea Level Pressure 30.16 in    
Wind  
Wind Speed 10 mph (WNW)    
Max Wind Speed 18 mph    
Max Gust Speed 29 mph    
Visibility 10 miles    
Events      
Averages and records for this station are not official NWS values.
T = Trace of Precipitation, MM = Missing Value Source: NWS Daily Summary

Daily Weather History Graph

Daily Weather History Graph

Search for Another Location

Airport or City:

Trip Planner

Search our weather history database for the weather conditions in past years. The results will help you decide how hot, cold, wet, or windy it might be!

Date:

Astronomy

Apr. 02, 2013 Rise Set
Actual Time 7:11 AM EDT 7:58 PM EDT
Civil Twilight 6:42 AM EDT 8:27 PM EDT
Nautical Twilight 6:09 AM EDT 9:01 PM EDT
Astronomical Twilight 5:34 AM EDT 9:36 PM EDT
Moon 2:07 AM EDT (4/2) 11:55 AM EDT (4/2)
Length of Visible Light 13h 44m
Length of Day
12h 47m
Waning Gibbous, 56% of the Moon is Illuminated
Apr 2
Waning Gibbous
Apr 3
Last Quarter
Apr 10
New
Apr 18
First Quarter
Apr 25
Full

Hourly Weather History & Observations

Time (EDT) Temp. Windchill Dew Point Humidity Pressure Visibility Wind Dir Wind Speed Gust Speed Precip Events Conditions
12:55 AM 26.6 °F 20.0 °F 12.9 °F 56% 30.11 in 10.0 mi West 5.8 mph - N/A   Clear
1:55 AM 26.1 °F 18.4 °F 13.1 °F 58% 30.11 in 10.0 mi West 6.9 mph - N/A   Clear
2:55 AM 25.2 °F 16.5 °F 13.6 °F 62% 30.10 in 10.0 mi West 8.1 mph - N/A   Partly Cloudy
3:55 AM 25.0 °F 17.1 °F 14.0 °F 63% 30.11 in 10.0 mi West 6.9 mph - N/A   Partly Cloudy
4:55 AM 24.3 °F 15.4 °F 13.8 °F 64% 30.11 in 10.0 mi West 8.1 mph - N/A   Clear
5:55 AM 23.9 °F 15.8 °F 14.7 °F 68% 30.12 in 10.0 mi West 6.9 mph - N/A   Clear
6:55 AM 23.5 °F 16.4 °F 15.6 °F 72% 30.14 in 10.0 mi WNW 5.8 mph - N/A   Partly Cloudy
7:55 AM 24.4 °F 16.5 °F 16.9 °F 73% 30.17 in 10.0 mi WNW 6.9 mph - N/A   Clear
8:55 AM 27.3 °F 17.7 °F 17.2 °F 66% 30.18 in 10.0 mi West 10.4 mph - N/A   Clear
9:55 AM 31.1 °F 21.9 °F 13.1 °F 47% 30.17 in 10.0 mi West 11.5 mph - N/A   Clear
10:55 AM 33.4 °F 23.9 °F 11.1 °F 40% 30.17 in 10.0 mi WNW 13.8 mph 24.2 mph N/A   Scattered Clouds
11:55 AM 35.4 °F 24.9 °F 10.2 °F 35% 30.17 in 10.0 mi West 18.4 mph 23.0 mph N/A   Mostly Cloudy
12:55 PM 37.2 °F 27.6 °F 11.7 °F 35% 30.17 in 10.0 mi West 17.3 mph 24.2 mph N/A   Mostly Cloudy
1:55 PM 38.3 °F 29.0 °F 11.3 °F 33% 30.15 in 10.0 mi West 17.3 mph 28.8 mph N/A   Mostly Cloudy
2:55 PM 38.8 °F 29.7 °F 11.5 °F 33% 30.15 in 10.0 mi WNW 17.3 mph 24.2 mph N/A   Mostly Cloudy
3:55 PM 37.9 °F 30.0 °F 10.4 °F 32% 30.14 in 10.0 mi NW 12.7 mph - N/A   Overcast
4:55 PM 39.0 °F 31.0 °F 9.7 °F 30% 30.14 in 10.0 mi WNW 13.8 mph 19.6 mph N/A   Mostly Cloudy
5:55 PM 39.9 °F 31.8 °F 10.8 °F 30% 30.15 in 10.0 mi WNW 15.0 mph 23.0 mph N/A   Mostly Cloudy
6:55 PM 38.1 °F 30.7 °F 10.2 °F 32% 30.16 in 10.0 mi WNW 11.5 mph 23.0 mph N/A   Mostly Cloudy
7:55 PM 36.7 °F 28.0 °F 10.0 °F 33% 30.18 in 10.0 mi WNW 13.8 mph - N/A   Scattered Clouds
8:55 PM 34.2 °F 26.8 °F 10.2 °F 37% 30.20 in 10.0 mi WNW 9.2 mph - N/A   Clear
9:55 PM 33.4 °F 25.9 °F 9.5 °F 37% 30.22 in 10.0 mi WNW 9.2 mph - N/A   Clear
10:55 PM 32.0 °F 23.6 °F 9.1 °F 38% 30.25 in 10.0 mi NW 10.4 mph - N/A   Clear
11:55 PM 29.5 °F 21.8 °F 10.6 °F 45% 30.26 in 10.0 mi NW 8.1 mph - N/A   Clear